This demonstration page uses our WeatherBlox Daily Observations layout. Learn more.

Left ArrowRight Arrow

Hourly Observations for May 4, 2017

Temp ( °F °C ) Dew Point ( °F °C ) Humidity (%) Winds ( mph kmh ) Pressure ( in mb ) Visibility ( mi km ) Precip ( " mm )
12:53 am 00:53 Clear 74 23.3 50 10 43 43 SE 7 11 29.88 1012 10 16 0.00 0.00
1:53 am 01:53 Clear 74 23.3 49 9.4 41 41 SE 12 19 29.88 1012 10 16 0.00 0.00
2:53 am 02:53 Mostly Cloudy 72 22.2 49 9.4 44 44 SSE 10 17 29.87 1012 10 16 0.00 0.00
3:53 am 03:53 Cloudy 70 21.1 50 10 49 49 SSW 6 9 29.88 1012 10 16 0.00 0.03
4:53 am 04:53 Cloudy with Light Rain 66 18.9 55 12.8 68 68 SW 6 9 29.91 1013 10 16 0.00 0.03
5:53 am 05:53 Cloudy with Light Rain 61 16.1 59 15 93 93 SW 6 9 29.93 1013 10 16 0.03 0.76
6:53 am 06:53 Cloudy with Light Rain 60 15.6 59 15 96 96 S 5 7 29.91 1013 10 16 0.03 0.76
7:53 am 07:53 Cloudy with Rain 60 15.6 59 15 96 96 SE 6 9 29.91 1013 3 5 0.09 2.29
8:53 am 08:53 Cloudy with Light Rain 60 15.6 60 15.6 100 100 ESE 5 7 29.88 1012 10 16 0.03 0.76
9:53 am 09:53 Cloudy with Light Rain 61 16.1 61 16.1 100 100 ESE 7 11 29.84 1011 5 8 0.04 1.02
10:01 am 10:01 Cloudy with Light Rain 61 16.1 61 16.1 100 100 ESE 9 15 29.85 1011 3 5 0.00 0.03
10:53 am 10:53 Cloudy with Light Rain 61 16.1 61 16.1 100 100 SE 10 17 29.83 1010 3 5 0.09 2.29
11:03 am 11:03 Cloudy with Light Rain 61 16.1 61 16.1 100 100 SE 9 15 29.85 1011 3 5 0.03 0.76
11:53 am 11:53 Cloudy with Mist and Fog 62 16.7 60 15.6 93 93 E 10 17 29.76 1008 6 10 0.07 1.78
12:07 pm 12:07 Cloudy 62 16.7 60 15.6 93 93 ESE 10 17 29.77 1008 7 11 0.00 0.00
12:53 pm 12:53 Cloudy 64 17.8 62 16.7 93 93 E 10 17 29.74 1007 7 11 0.00 0.00
1:53 pm 13:53 Cloudy 66 18.9 62 16.7 87 87 SSE 14 22 29.72 1006 8 13 0.00 0.00
2:53 pm 14:53 Cloudy 67 19.4 62 16.7 84 84 SE 12 19 29.68 1005 10 16 0.00 0.00
3:49 pm 15:49 Cloudy with Light Rain 66 19 64 18 94 94 SE 10 17 29.65 1004 6 10 0.05 1.27
3:53 pm 15:53 Cloudy with Light Rain 66 18.9 65 18.3 96 96 SSE 9 15 29.64 1004 5 8 0.06 1.52
4:18 pm 16:18 Cloudy with Heavy Rain 65 18.3 65 18.3 100 100 SSE 9 15 29.62 1003 2 3 0.11 2.79
4:23 pm 16:23 Cloudy with Light Rain 65 18.3 65 18.3 100 100 SSE 10 17 29.62 1003 4 6 0.13 3.30
4:32 pm 16:32 Cloudy with Light Rain 66 19 66 19 100 100 S 6 9 29.59 1002 10 16 0.00 0.00
4:50 pm 16:50 Cloudy 66 19 66 19 100 100 S 8 13 29.59 1002 10 16 0.00 0.00
4:53 pm 16:53 Cloudy 67 19.4 66 18.9 97 97 S 8 13 29.61 1003 10 16 0.13 3.30
5:23 pm 17:23 Cloudy 67 19.4 66 18.9 97 97 SSE 8 13 29.59 1002 10 16 0.00 0.00
5:53 pm 17:53 Mostly Cloudy 68 20 67 19.4 96 96 SSE 7 11 29.60 1002 10 16 0.00 0.03
6:00 pm 18:00 Mostly Cloudy 68 20 66 19 94 94 S 9 15 29.59 1002 10 16 0.00 0.00
6:27 pm 18:27 Partly Cloudy 68 20 66 18.9 93 93 SSE 9 15 29.56 1001 10 16 0.00 0.00
6:53 pm 18:53 Sunny 68 20 66 18.9 93 93 SSE 8 13 29.57 1002 10 16 0.00 0.00
7:24 pm 19:24 Mostly Cloudy 68 20 64 18 88 88 S 7 11 29.56 1001 10 16 0.00 0.00
7:53 pm 19:53 Cloudy 67 19.4 65 18.3 93 93 SSE 9 15 29.58 1002 10 16 0.00 0.00
8:09 pm 20:09 Cloudy 67 19.4 65 18.3 93 93 S 12 19 29.56 1001 10 16 0.00 0.00
8:36 pm 20:36 Cloudy 66 19 64 18 94 94 S 9 15 29.56 1001 10 16 0.00 0.00
8:53 pm 20:53 Cloudy with Heavy Rain 66 18.9 65 18.3 96 96 SSE 7 11 29.57 1001 3 5 0.07 1.78
9:14 pm 21:14 Cloudy with Heavy Rain 64 18 63 17 94 94 W 18 30 29.59 1002 3 4 0.00 0.00
9:28 pm 21:28 Cloudy with Light Rain 61 16 59 15 94 94 W 7 11 29.62 1003 6 10 0.00 0.00
9:41 pm 21:41 Cloudy with Light Rain 60 15.6 59 15 96 96 WSW 5 7 29.62 1003 8 13 0.18 4.57
9:53 pm 21:53 Cloudy with Light Rain 60 15.6 59 15 96 96 WSW 6 9 29.61 1003 10 16 0.19 4.83
10:53 pm 22:53 Cloudy with Light Rain 60 15.6 59 15 96 96 Calm 29.60 1002 10 16 0.04 1.02
11:22 pm 23:22 Cloudy with Light Rain 59 15 57 14 94 94 W 10 17 29.62 1003 10 16 0.00 0.00
11:42 pm 23:42 Cloudy 57 14 55 13 94 94 W 7 11 29.62 1003 10 16 0.00 0.00
11:49 pm 23:49 Cloudy 57 14 55 13 94 94 W 7 11 29.59 1002 10 16 0.01 0.25
11:53 pm 23:53 Cloudy 58 14.4 55 12.8 90 90 W 6 9 29.59 1002 10 16 0.01 0.25

Powered by AerisWeather